| time (UTC) | temp C | wind direction | speed KPH | gust KPH | rain 1hr cm | rain 24hr cm | rain mn cm | humidity % | barometer mb |
| 20260506070251 | 9 | 63 | 1.6 | 11.3 | 0.23 | 0.94 | 0.94 | 97 | 1005.0 |
| 20260506062300 | 8 | 354 | 1.6 | 11.3 | 0.20 | 0.91 | 0.91 | 97 | 1005.0 |
| 20260506062010 | 8 | 327 | 3.2 | 11.3 | 0.18 | 0.89 | 0.89 | 97 | 1005.0 |
| 20260506061246 | 8 | 82 | 1.6 | 6.4 | 0.18 | 0.89 | 0.89 | 97 | 1004.8 |
| 20260506060745 | 8 | 350 | 1.6 | 6.4 | 0.00 | 0.71 | 0.71 | 97 | 1005.0 |
| 20260506060244 | 8 | 320 | 0.0 | 9.7 | 0.00 | 0.71 | 0.71 | 97 | 1004.8 |
| 20260506051240 | 8 | 323 | 1.6 | 11.3 | 0.08 | 0.76 | 0.71 | 97 | 1004.9 |
| 20260506050738 | 8 | 350 | 6.4 | 11.3 | 0.08 | 0.76 | 0.71 | 97 | 1004.9 |
| 20260506050237 | 8 | 22 | 1.6 | 11.3 | 0.08 | 0.76 | 0.71 | 97 | 1004.9 |
| 20260506044736 | 8 | 340 | 3.2 | 9.7 | 0.08 | 0.76 | 0.71 | 97 | 1004.9 |
| 20260506044235 | 8 | 329 | 6.4 | 9.7 | 0.10 | 0.76 | 0.71 | 97 | 1004.9 |
| 20260506043735 | 8 | 28 | 1.6 | 9.7 | 0.10 | 0.76 | 0.71 | 97 | 1004.8 |
| 20260506043235 | 8 | 62 | 3.2 | 9.7 | 0.10 | 0.76 | 0.71 | 97 | 1004.9 |
| 20260506042733 | 8 | 58 | 1.6 | 6.4 | 0.13 | 0.76 | 0.71 | 97 | 1004.8 |
| 20260506042233 | 8 | 329 | 4.8 | 6.4 | 0.13 | 0.76 | 0.71 | 97 | 1004.7 |
| 20260506041732 | 8 | 342 | 3.2 | 4.8 | 0.05 | 0.69 | 0.64 | 97 | 1004.9 |
| 20260506041231 | 8 | 31 | 0.0 | 4.8 | 0.08 | 0.69 | 0.64 | 97 | 1004.9 |
| 20260506040950 | 8 | 323 | 1.6 | 9.7 | 0.08 | 0.69 | 0.64 | 97 | 1005.0 |
| 20260506040230 | 8 | 63 | 6.4 | 9.7 | 0.08 | 0.69 | 0.64 | 97 | 1004.9 |
| 20260506035730 | 8 | 40 | 1.6 | 9.7 | 0.10 | 0.69 | 0.64 | 97 | 1004.8 |
| 20260506035230 | 8 | 355 | 3.2 | 11.3 | 0.10 | 0.69 | 0.64 | 97 | 1004.9 |
| 20260506034947 | 8 | 31 | 0.0 | 11.3 | 0.10 | 0.66 | 0.61 | 97 | 1004.8 |
| 20260506033731 | 8 | 336 | 1.6 | 11.3 | 0.10 | 0.66 | 0.61 | 97 | 1004.9 |
| 20260506033227 | 8 | 0 | 0.0 | 9.7 | 0.10 | 0.64 | 0.61 | 97 | 1005.0 |
| 20260506032726 | 8 | 43 | 4.8 | 9.7 | 0.10 | 0.64 | 0.61 | 97 | 1004.8 |
| 20260506032225 | 8 | 358 | 4.8 | 9.7 | 0.10 | 0.64 | 0.58 | 97 | 1005.0 |
| 20260506031725 | 8 | 337 | 3.2 | 12.9 | 0.10 | 0.61 | 0.58 | 97 | 1005.1 |
| 20260506031452 | 8 | 54 | 6.4 | 12.9 | 0.10 | 0.61 | 0.56 | 97 | 1005.1 |
| 20260506030724 | 8 | 331 | 3.2 | 9.7 | 0.10 | 0.69 | 0.56 | 97 | 1005.1 |
| 20260506030224 | 8 | 348 | 4.8 | 9.7 | 0.10 | 0.69 | 0.56 | 97 | 1005.1 |
| 20260506025724 | 8 | 70 | 3.2 | 9.7 | 0.10 | 0.66 | 0.56 | 97 | 1005.1 |
| 20260506025222 | 8 | 341 | 3.2 | 9.7 | 0.10 | 0.66 | 0.53 | 97 | 1005.1 |
| 20260506024721 | 8 | 3 | 3.2 | 9.7 | 0.10 | 0.66 | 0.53 | 97 | 1005.1 |
| 20260506024221 | 8 | 351 | 1.6 | 11.3 | 0.10 | 0.64 | 0.51 | 97 | 1005.2 |
| 20260506023737 | 8 | 336 | 4.8 | 11.3 | 0.10 | 0.64 | 0.51 | 97 | 1005.2 |
| 20260506023440 | 8 | 31 | 3.2 | 9.7 | 0.10 | 0.64 | 0.51 | 97 | 1005.3 |
| 20260506022719 | 8 | 358 | 0.0 | 6.4 | 0.10 | 0.61 | 0.51 | 97 | 1005.2 |
| 20260506022218 | 8 | 21 | 0.0 | 6.4 | 0.10 | 0.61 | 0.48 | 97 | 1005.2 |
| 20260506021719 | 8 | 320 | 1.6 | 9.7 | 0.10 | 0.61 | 0.48 | 97 | 1005.2 |
| 20260506021217 | 8 | 0 | 1.6 | 9.7 | 0.10 | 0.58 | 0.48 | 97 | 1005.2 |
| 20260506020717 | 8 | 331 | 1.6 | 6.4 | 0.10 | 0.58 | 0.46 | 97 | 1005.3 |
| 20260506020216 | 8 | 53 | 4.8 | 6.4 | 0.10 | 0.56 | 0.46 | 97 | 1005.4 |
| 20260506015716 | 8 | 20 | 1.6 | 11.3 | 0.10 | 0.56 | 0.43 | 97 | 1005.4 |
| 20260506015225 | 8 | 41 | 1.6 | 11.3 | 0.10 | 0.56 | 0.43 | 97 | 1005.6 |
| 20260506014715 | 8 | 44 | 1.6 | 11.3 | 0.10 | 0.56 | 0.43 | 96 | 1005.3 |
| 20260506014214 | 8 | 33 | 1.6 | 6.4 | 0.10 | 0.53 | 0.43 | 96 | 1005.5 |
| 20260506013715 | 8 | 325 | 4.8 | 6.4 | 0.10 | 0.53 | 0.41 | 96 | 1005.5 |
| 20260506013213 | 8 | 15 | 1.6 | 11.3 | 0.10 | 0.51 | 0.41 | 96 | 1005.5 |
| 20260506012712 | 8 | 17 | 6.4 | 11.3 | 0.10 | 0.51 | 0.38 | 96 | 1005.5 |
| 20260506012212 | 8 | 334 | 3.2 | 11.3 | 0.13 | 0.51 | 0.38 | 96 | 1005.4 |
| 20260506011712 | 8 | 343 | 1.6 | 11.3 | 0.13 | 0.51 | 0.38 | 96 | 1005.6 |
| 20260506011211 | 8 | 356 | 1.6 | 6.4 | 0.13 | 0.48 | 0.38 | 96 | 1005.6 |
| 20260506010711 | 8 | 351 | 3.2 | 6.4 | 0.13 | 0.48 | 0.36 | 96 | 1005.5 |
| 20260506010210 | 8 | 338 | 0.0 | 6.4 | 0.13 | 0.48 | 0.36 | 96 | 1005.8 |
| 20260506005710 | 8 | 338 | 1.6 | 9.7 | 0.13 | 0.46 | 0.33 | 96 | 1005.6 |
| 20260506005209 | 8 | 340 | 4.8 | 9.7 | 0.13 | 0.46 | 0.33 | 96 | 1005.7 |
| 20260506004708 | 8 | 29 | 1.6 | 9.7 | 0.13 | 0.43 | 0.33 | 96 | 1005.6 |
| 20260506004207 | 8 | 38 | 3.2 | 9.7 | 0.13 | 0.43 | 0.30 | 96 | 1005.8 |
| 20260506003707 | 8 | 340 | 3.2 | 11.3 | 0.13 | 0.43 | 0.30 | 96 | 1005.7 |
| 20260506003427 | 8 | 340 | 4.8 | 12.9 | 0.10 | 0.41 | 0.28 | 96 | 1005.9 |
| 20260506002705 | 8 | 61 | 4.8 | 12.9 | 0.10 | 0.41 | 0.28 | 96 | 1005.9 |
| 20260506002205 | 8 | 30 | 0.0 | 12.9 | 0.10 | 0.38 | 0.28 | 95 | 1005.8 |
| 20260506001706 | 8 | 1 | 1.6 | 12.9 | 0.08 | 0.38 | 0.25 | 95 | 1006.0 |
| 20260506000703 | 8 | 58 | 8.0 | 11.3 | 0.08 | 0.36 | 0.23 | 95 | 1006.0 |
| 20260506000428 | 8 | 0 | 6.4 | 9.7 | 0.08 | 0.33 | 0.23 | 95 | 1005.9 |
| 20260505235704 | 9 | 11 | 3.2 | 9.7 | 0.08 | 0.33 | 0.20 | 95 | 1005.9 |
| 20260505235201 | 9 | 337 | 0.0 | 6.4 | 0.10 | 0.33 | 0.20 | 95 | 1006.2 |
| 20260505234700 | 9 | 54 | 1.6 | 16.1 | 0.10 | 0.30 | 0.18 | 95 | 1006.2 |
| 20260505234419 | 9 | 27 | 4.8 | 16.1 | 0.10 | 0.30 | 0.18 | 95 | 1006.2 |
| 20260505233659 | 9 | 355 | 3.2 | 12.9 | 0.10 | 0.30 | 0.18 | 95 | 1006.3 |
| 20260505233200 | 9 | 14 | 8.0 | 11.3 | 0.10 | 0.30 | 0.18 | 95 | 1006.3 |
| 20260505232659 | 9 | 46 | 4.8 | 14.5 | 0.10 | 0.28 | 0.18 | 95 | 1006.4 |
| 20260505232158 | 9 | 36 | 3.2 | 14.5 | 0.10 | 0.28 | 0.18 | 95 | 1006.2 |
| 20260505231657 | 9 | 20 | 3.2 | 12.9 | 0.13 | 0.28 | 0.18 | 95 | 1006.4 |
| 20260505231158 | 9 | 350 | 6.4 | 12.9 | 0.13 | 0.28 | 0.15 | 94 | 1006.5 |
| 20260505230656 | 9 | 58 | 4.8 | 11.3 | 0.13 | 0.28 | 0.15 | 94 | 1006.5 |
| 20260505230156 | 9 | 334 | 1.6 | 11.3 | 0.15 | 0.25 | 0.15 | 94 | 1006.3 |
| 20260505225655 | 9 | 41 | 1.6 | 11.3 | 0.13 | 0.25 | 0.13 | 94 | 1006.5 |
| 20260505225156 | 9 | 305 | 6.4 | 11.3 | 0.10 | 0.23 | 0.10 | 94 | 1006.6 |
| 20260505224654 | 9 | 43 | 1.6 | 9.7 | 0.10 | 0.23 | 0.10 | 94 | 1006.6 |
| 20260505224153 | 9 | 24 | 3.2 | 16.1 | 0.10 | 0.20 | 0.10 | 94 | 1006.5 |
| 20260505223653 | 9 | 349 | 4.8 | 16.1 | 0.08 | 0.20 | 0.08 | 94 | 1006.6 |
| 20260505223154 | 9 | 347 | 3.2 | 11.3 | 0.08 | 0.18 | 0.08 | 93 | 1006.5 |
| 20260505222652 | 9 | 346 | 6.4 | 11.3 | 0.05 | 0.18 | 0.08 | 93 | 1006.6 |
| 20260505222151 | 9 | 330 | 4.8 | 11.3 | 0.05 | 0.18 | 0.05 | 93 | 1006.6 |
| 20260505221651 | 9 | 40 | 4.8 | 11.3 | 0.05 | 0.18 | 0.05 | 93 | 1006.6 |
| 20260505221149 | 10 | 329 | 8.0 | 14.5 | 0.05 | 0.15 | 0.05 | 92 | 1006.6 |
| 20260505220650 | 10 | 1 | 3.2 | 9.7 | 0.03 | 0.15 | 0.03 | 92 | 1006.6 |
| 20260505220415 | 10 | 332 | 1.6 | 9.7 | 0.00 | 0.13 | 0.00 | 91 | 1006.7 |
| 20260505215648 | 10 | 16 | 3.2 | 9.7 | 0.00 | 0.13 | 0.13 | 91 | 1006.7 |
| 20260505215147 | 10 | 22 | 1.6 | 6.4 | 0.00 | 0.15 | 0.13 | 90 | 1006.8 |
| 20260505214701 | 10 | 25 | 1.6 | 9.7 | 0.00 | 0.15 | 0.13 | 89 | 1006.7 |
| 20260505214146 | 10 | 285 | 3.2 | 12.9 | 0.00 | 0.15 | 0.13 | 89 | 1006.7 |
| 20260505213911 | 10 | 326 | 6.4 | 12.9 | 0.00 | 0.15 | 0.13 | 88 | 1006.9 |
| 20260505213147 | 10 | 352 | 6.4 | 11.3 | 0.00 | 0.18 | 0.13 | 88 | 1006.8 |
| 20260505212644 | 10 | 58 | 6.4 | 12.9 | 0.00 | 0.23 | 0.13 | 87 | 1006.8 |
| 20260505212144 | 10 | 73 | 3.2 | 14.5 | 0.00 | 0.43 | 0.13 | 87 | 1007.0 |
| 20260505211644 | 10 | 127 | 6.4 | 14.5 | 0.00 | 0.43 | 0.13 | 87 | 1006.9 |
| 20260505211144 | 10 | 4 | 9.7 | 14.5 | 0.00 | 0.43 | 0.13 | 86 | 1006.9 |
| 20260505210642 | 10 | 62 | 1.6 | 12.9 | 0.00 | 0.43 | 0.13 | 86 | 1007.0 |
| 20260505210142 | 10 | 94 | 6.4 | 12.9 | 0.00 | 0.43 | 0.13 | 86 | 1007.0 |
| 20260505205641 | 10 | 358 | 6.4 | 12.9 | 0.00 | 0.43 | 0.13 | 86 | 1006.9 |
| 20260505205142 | 10 | 53 | 4.8 | 14.5 | 0.00 | 0.43 | 0.13 | 87 | 1007.0 |
| 20260505204905 | 10 | 244 | 4.8 | 14.5 | 0.00 | 0.43 | 0.13 | 87 | 1007.0 |
| 20260505204139 | 11 | 27 | 3.2 | 11.3 | 0.00 | 0.43 | 0.13 | 87 | 1007.1 |
| 20260505203641 | 11 | 80 | 1.6 | 9.7 | 0.00 | 0.43 | 0.13 | 87 | 1006.9 |
| 20260505203402 | 11 | 359 | 6.4 | 12.9 | 0.00 | 0.43 | 0.13 | 87 | 1007.1 |
| 20260505202637 | 11 | 329 | 3.2 | 12.9 | 0.00 | 0.43 | 0.13 | 87 | 1007.0 |
| 20260505202137 | 11 | 39 | 3.2 | 11.3 | 0.00 | 0.43 | 0.13 | 87 | 1007.0 |
| 20260505201637 | 11 | 14 | 3.2 | 14.5 | 0.00 | 0.43 | 0.13 | 87 | 1007.0 |
| 20260505201403 | 11 | 22 | 4.8 | 14.5 | 0.00 | 0.43 | 0.13 | 87 | 1007.0 |
| 20260505200635 | 11 | 64 | 1.6 | 12.9 | 0.00 | 0.43 | 0.13 | 87 | 1007.1 |
| 20260505200134 | 11 | 345 | 0.0 | 12.9 | 0.00 | 0.43 | 0.13 | 87 | 1007.0 |
| 20260505195634 | 11 | 316 | 1.6 | 12.9 | 0.00 | 0.43 | 0.13 | 87 | 1007.2 |
| 20260505195405 | 11 | 47 | 4.8 | 12.9 | 0.00 | 0.43 | 0.13 | 87 | 1007.3 |
| 20260505194633 | 11 | 29 | 3.2 | 11.3 | 0.00 | 0.43 | 0.13 | 87 | 1007.0 |
| 20260505194357 | 11 | 326 | 8.0 | 11.3 | 0.00 | 0.43 | 0.13 | 87 | 1006.8 |
| 20260505193859 | 11 | 313 | 4.8 | 12.9 | 0.00 | 0.43 | 0.13 | 88 | 1007.0 |
| 20260505193131 | 11 | 52 | 6.4 | 12.9 | 0.00 | 0.43 | 0.13 | 88 | 1006.9 |
| 20260505192630 | 11 | 359 | 6.4 | 12.9 | 0.00 | 0.43 | 0.13 | 88 | 1007.0 |
| 20260505192131 | 11 | 45 | 6.4 | 12.9 | 0.00 | 0.43 | 0.13 | 88 | 1007.0 |
| 20260505191629 | 11 | 8 | 3.2 | 11.3 | 0.00 | 0.43 | 0.13 | 88 | 1007.0 |
| 20260505191129 | 11 | 8 | 3.2 | 11.3 | 0.00 | 0.43 | 0.13 | 88 | 1006.9 |
| 20260505190628 | 11 | 36 | 3.2 | 11.3 | 0.00 | 0.43 | 0.13 | 88 | 1006.7 |
| 20260505190129 | 11 | 357 | 1.6 | 11.3 | 0.00 | 0.43 | 0.13 | 88 | 1006.9 |
| 20260505185626 | 11 | 346 | 4.8 | 6.4 | 0.00 | 0.43 | 0.13 | 88 | 1006.6 |
| 20260505185126 | 11 | 33 | 1.6 | 9.7 | 0.00 | 0.43 | 0.13 | 88 | 1006.7 |
| 20260505184625 | 11 | 325 | 3.2 | 12.9 | 0.00 | 0.43 | 0.13 | 88 | 1006.6 |
| 20260505184350 | 11 | 342 | 3.2 | 12.9 | 0.00 | 0.43 | 0.13 | 87 | 1006.5 |
| 20260505183625 | 11 | 33 | 1.6 | 9.7 | 0.00 | 0.43 | 0.13 | 88 | 1006.6 |
| 20260505183344 | 11 | 40 | 0.0 | 9.7 | 0.00 | 0.43 | 0.13 | 88 | 1006.6 |
| 20260505182623 | 11 | 337 | 3.2 | 11.3 | 0.00 | 0.43 | 0.13 | 88 | 1006.6 |
| 20260505182355 | 11 | 354 | 3.2 | 11.3 | 0.00 | 0.43 | 0.13 | 87 | 1006.6 |
| 20260505181842 | 11 | 6 | 8.0 | 11.3 | 0.00 | 0.43 | 0.13 | 87 | 1006.6 |
| 20260505181122 | 11 | 38 | 3.2 | 11.3 | 0.00 | 0.43 | 0.13 | 87 | 1006.6 |
| 20260505180621 | 11 | 10 | 0.0 | 11.3 | 0.00 | 0.43 | 0.13 | 87 | 1006.9 |
| 20260505180345 | 11 | 277 | 3.2 | 12.9 | 0.00 | 0.43 | 0.13 | 87 | 1006.7 |
| 20260505175620 | 11 | 329 | 1.6 | 12.9 | 0.00 | 0.43 | 0.13 | 87 | 1006.8 |
| 20260505175346 | 11 | 357 | 3.2 | 12.9 | 0.00 | 0.66 | 0.13 | 87 | 1006.6 |
| 20260505174619 | 11 | 62 | 0.0 | 11.3 | 0.00 | 0.66 | 0.13 | 87 | 1006.5 |
| 20260505174117 | 11 | 341 | 3.2 | 9.7 | 0.00 | 0.66 | 0.13 | 87 | 1006.4 |
| 20260505173836 | 11 | 52 | 1.6 | 9.7 | 0.00 | 0.66 | 0.13 | 87 | 1006.5 |
| 20260505172615 | 11 | 49 | 1.6 | 6.4 | 0.00 | 0.66 | 0.13 | 87 | 1006.7 |
| 20260505172117 | 11 | 37 | 4.8 | 6.4 | 0.00 | 0.66 | 0.13 | 88 | 1006.7 |
| 20260505171614 | 11 | 22 | 1.6 | 6.4 | 0.00 | 0.66 | 0.13 | 87 | 1006.6 |
| 20260505171338 | 11 | 5 | 1.6 | 6.4 | 0.00 | 0.66 | 0.13 | 87 | 1006.7 |
| 20260505170614 | 12 | 63 | 1.6 | 6.4 | 0.00 | 0.66 | 0.13 | 88 | 1007.0 |
| 20260505170117 | 12 | 342 | 1.6 | 9.7 | 0.00 | 0.66 | 0.13 | 88 | 1006.9 |
| 20260505165613 | 12 | 55 | 6.4 | 9.7 | 0.00 | 0.66 | 0.13 | 88 | 1007.1 |
| 20260505165111 | 12 | 80 | 3.2 | 6.4 | 0.00 | 0.66 | 0.13 | 88 | 1006.9 |
| 20260505164612 | 12 | 51 | 3.2 | 14.5 | 0.00 | 0.66 | 0.13 | 88 | 1007.0 |
| 20260505164112 | 12 | 347 | 1.6 | 14.5 | 0.00 | 0.66 | 0.13 | 88 | 1007.0 |
| 20260505163610 | 12 | 3 | 1.6 | 17.7 | 0.00 | 0.66 | 0.13 | 88 | 1006.9 |
| 20260505163108 | 12 | 345 | 1.6 | 17.7 | 0.00 | 0.66 | 0.13 | 88 | 1007.0 |
| 20260505162609 | 12 | 52 | 0.0 | 4.8 | 0.00 | 0.66 | 0.13 | 89 | 1006.8 |
| 20260505162108 | 12 | 6 | 0.0 | 9.7 | 0.00 | 0.69 | 0.13 | 89 | 1007.1 |
| 20260505161607 | 12 | 38 | 3.2 | 9.7 | 0.00 | 0.74 | 0.13 | 89 | 1007.1 |
| 20260505161328 | 12 | 286 | 3.2 | 6.4 | 0.00 | 0.74 | 0.13 | 89 | 1006.8 |
| 20260505160607 | 12 | 335 | 3.2 | 4.8 | 0.00 | 0.79 | 0.13 | 89 | 1007.1 |
| 20260505160111 | 11 | 331 | 0.0 | 9.7 | 0.00 | 0.86 | 0.13 | 89 | 1006.9 |
| 20260505153101 | 11 | 22 | 1.6 | 9.7 | 0.00 | 1.12 | 0.13 | 88 | 1007.4 |
| 20260505152602 | 12 | 61 | 1.6 | 9.7 | 0.00 | 1.12 | 0.13 | 88 | 1007.1 |
| 20260505152100 | 12 | 71 | 4.8 | 9.7 | 0.00 | 1.14 | 0.13 | 87 | 1007.2 |
| 20260505151818 | 12 | 13 | 3.2 | 11.3 | 0.00 | 1.14 | 0.13 | 87 | 1007.2 |
| 20260505151059 | 12 | 47 | 3.2 | 11.3 | 0.00 | 1.17 | 0.13 | 87 | 1007.3 |
| 20260505150825 | 12 | 105 | 1.6 | 11.3 | 0.00 | 1.19 | 0.13 | 88 | 1007.5 |
| 20260505150330 | 12 | 85 | 4.8 | 11.3 | 0.00 | 1.27 | 0.13 | 88 | 1007.2 |
| 20260505140553 | 11 | 24 | 4.8 | 9.7 | 0.00 | 1.35 | 0.13 | 90 | 1007.5 |
| 20260505124542 | 11 | 29 | 4.8 | 11.3 | 0.00 | 1.35 | 0.13 | 92 | 1008.2 |
| 20260505124040 | 11 | 77 | 3.2 | 6.4 | 0.00 | 1.35 | 0.13 | 92 | 1008.2 |
| 20260505123540 | 11 | 39 | 0.0 | 4.8 | 0.00 | 1.35 | 0.13 | 92 | 1008.1 |
| 20260505123040 | 11 | 35 | 3.2 | 6.4 | 0.00 | 1.35 | 0.13 | 92 | 1007.9 |
| 20260505122541 | 11 | 4 | 1.6 | 11.3 | 0.00 | 1.35 | 0.13 | 92 | 1008.3 |
| 20260505122038 | 10 | 340 | 3.2 | 11.3 | 0.00 | 1.35 | 0.13 | 92 | 1008.3 |
| 20260505121538 | 10 | 34 | 6.4 | 11.3 | 0.00 | 1.35 | 0.13 | 92 | 1008.4 |
| 20260505121037 | 10 | 61 | 1.6 | 6.4 | 0.00 | 1.35 | 0.13 | 92 | 1008.3 |
| 20260505120756 | 10 | 72 | 3.2 | 9.7 | 0.00 | 1.35 | 0.13 | 92 | 1008.3 |
| 20260505120036 | 10 | 35 | 4.8 | 9.7 | 0.00 | 1.35 | 0.13 | 92 | 1008.3 |
| 20260505115536 | 10 | 335 | 1.6 | 9.7 | 0.00 | 1.35 | 0.13 | 93 | 1008.4 |
| 20260505115035 | 10 | 4 | 4.8 | 9.7 | 0.00 | 1.35 | 0.13 | 93 | 1008.4 |
| 20260505114549 | 10 | 347 | 3.2 | 6.4 | 0.00 | 1.35 | 0.13 | 93 | 1008.7 |
| 20260505114034 | 10 | 60 | 0.0 | 9.7 | 0.00 | 1.35 | 0.13 | 93 | 1008.6 |
| 20260505113533 | 10 | 99 | 3.2 | 9.7 | 0.00 | 1.35 | 0.13 | 93 | 1008.8 |
| 20260505113032 | 10 | 60 | 1.6 | 9.7 | 0.00 | 1.35 | 0.13 | 93 | 1008.5 |
| 20260505112533 | 10 | 354 | 3.2 | 9.7 | 0.00 | 1.35 | 0.13 | 93 | 1008.6 |
| 20260505112033 | 10 | 334 | 1.6 | 12.9 | 0.00 | 1.35 | 0.13 | 93 | 1008.5 |
| 20260505111531 | 10 | 74 | 0.0 | 12.9 | 0.00 | 1.35 | 0.13 | 93 | 1008.6 |
| 20260505111031 | 10 | 334 | 0.0 | 9.7 | 0.00 | 1.35 | 0.13 | 92 | 1008.8 |
| 20260505110753 | 10 | 49 | 4.8 | 9.7 | 0.00 | 1.35 | 0.13 | 92 | 1008.6 |
| 20260505102025 | 10 | 56 | 3.2 | 12.9 | 0.00 | 1.35 | 0.13 | 92 | 1008.8 |
| 20260505101524 | 10 | 327 | 4.8 | 12.9 | 0.00 | 1.35 | 0.13 | 92 | 1008.5 |
| 20260505101023 | 10 | 42 | 6.4 | 12.9 | 0.00 | 1.35 | 0.13 | 92 | 1008.6 |
| 20260505100744 | 10 | 49 | 3.2 | 9.7 | 0.00 | 1.35 | 0.13 | 92 | 1008.8 |
| 20260505100246 | 10 | 91 | 1.6 | 9.7 | 0.00 | 1.35 | 0.13 | 92 | 1008.8 |
| 20260505095747 | 10 | 349 | 3.2 | 9.7 | 0.00 | 1.35 | 0.13 | 92 | 1008.8 |
| 20260505095021 | 10 | 29 | 6.4 | 9.7 | 0.00 | 1.35 | 0.13 | 92 | 1008.8 |
| 20260505094520 | 10 | 87 | 3.2 | 11.3 | 0.00 | 1.35 | 0.13 | 92 | 1008.8 |
| 20260505094239 | 10 | 333 | 4.8 | 12.9 | 0.00 | 1.35 | 0.13 | 92 | 1008.8 |
| 20260505093748 | 10 | 11 | 4.8 | 12.9 | 0.00 | 1.35 | 0.13 | 93 | 1008.7 |
| 20260505093019 | 10 | 28 | 4.8 | 9.7 | 0.00 | 1.35 | 0.13 | 93 | 1008.7 |
| 20260505092531 | 10 | 61 | 3.2 | 9.7 | 0.00 | 1.35 | 0.13 | 93 | 1008.9 |
| 20260505092033 | 10 | 19 | 3.2 | 12.9 | 0.00 | 1.35 | 0.13 | 93 | 1008.8 |
| 20260505091517 | 10 | 26 | 3.2 | 12.9 | 0.00 | 1.35 | 0.13 | 93 | 1008.6 |
| 20260505091017 | 10 | 354 | 4.8 | 16.1 | 0.00 | 1.35 | 0.13 | 94 | 1008.8 |
| 20260505090516 | 10 | 31 | 8.0 | 16.1 | 0.00 | 1.35 | 0.13 | 94 | 1008.9 |
| 20260505090017 | 10 | 337 | 3.2 | 12.9 | 0.00 | 1.35 | 0.13 | 94 | 1008.9 |
| 20260505085515 | 10 | 326 | 6.4 | 12.9 | 0.00 | 1.35 | 0.13 | 94 | 1009.1 |
| 20260505085014 | 10 | 83 | 1.6 | 9.7 | 0.00 | 1.35 | 0.13 | 95 | 1008.9 |
| 20260505084733 | 10 | 52 | 0.0 | 4.8 | 0.00 | 1.35 | 0.13 | 95 | 1008.8 |
| 20260505084240 | 10 | 30 | 0.0 | 9.7 | 0.00 | 1.35 | 0.13 | 95 | 1008.9 |
| 20260505083014 | 9 | 86 | 4.8 | 16.1 | 0.00 | 1.35 | 0.13 | 95 | 1008.8 |
| 20260505082511 | 9 | 62 | 3.2 | 16.1 | 0.00 | 1.35 | 0.13 | 95 | 1009.0 |
| 20260505082011 | 9 | 54 | 6.4 | 12.9 | 0.00 | 1.35 | 0.13 | 95 | 1008.9 |
| 20260505081510 | 9 | 51 | 6.4 | 12.9 | 0.00 | 1.35 | 0.13 | 95 | 1008.7 |
| 20260505081012 | 9 | 338 | 3.2 | 12.9 | 0.00 | 1.35 | 0.13 | 95 | 1008.8 |
| 20260505080509 | 9 | 46 | 4.8 | 11.3 | 0.00 | 1.35 | 0.13 | 95 | 1008.9 |
| 20260505080008 | 9 | 359 | 4.8 | 11.3 | 0.00 | 1.35 | 0.13 | 95 | 1008.7 |
| 20260505075508 | 10 | 0 | 3.2 | 11.3 | 0.00 | 1.35 | 0.13 | 95 | 1009.0 |
| 20260505075008 | 10 | 274 | 3.2 | 11.3 | 0.00 | 1.35 | 0.13 | 95 | 1008.8 |
| 20260505074509 | 10 | 1 | 6.4 | 11.3 | 0.00 | 1.35 | 0.13 | 95 | 1008.7 |
| 20260505074232 | 10 | 104 | 8.0 | 11.3 | 0.00 | 1.35 | 0.13 | 96 | 1008.9 |
| 20260505073505 | 10 | 4 | 1.6 | 9.7 | 0.00 | 1.35 | 0.13 | 96 | 1008.6 |
| 20260505073007 | 10 | 38 | 0.0 | 11.3 | 0.00 | 1.35 | 0.13 | 96 | 1008.7 |
| 20260505072506 | 10 | 60 | 3.2 | 12.9 | 0.00 | 1.35 | 0.13 | 96 | 1008.7 |
| 20260505072005 | 10 | 0 | 0.0 | 12.9 | 0.00 | 1.35 | 0.13 | 96 | 1008.8 |
| 20260505071503 | 10 | 4 | 3.2 | 12.9 | 0.00 | 1.35 | 0.13 | 96 | 1008.8 |
| 20260505071004 | 10 | 359 | 1.6 | 12.9 | 0.00 | 1.35 | 0.13 | 96 | 1008.9 |